Tracking 34142 objects as of 18-May-2026
HD Live streaming from Space Station
objects crossing your sky now

QIANFAN-123

Track QIANFAN-123 now!
10-day predictions
QIANFAN-123 is classified as:


NORAD ID: 68650
Int'l Code: 2026-075Q
Perigee: 941.7 km
Apogee: 958.4 km
Inclination: 89.0 °
Period: 103.9 minutes
Semi major axis: 7321 km
RCS: Unknown
Launch date: April 7, 2026
Source: People's Republic of China (PRC)
Launch site: Wenchang Satellite Launch Center (WSC)
Your satellite tracking list
Your tracking list is empty




NASA's NSSDC Master Catalog

Two Line Element Set (TLE):
1 68650U 26075Q   26137.16581318  .00000036  00000-0  20113-4 0  9997
2 68650  88.9873 324.2172 0011356 100.3299 259.9153 13.85936011  5568
Source of the keplerian elements: AFSPC